Date,TemperatureHighF,TemperatureAvgF,TemperatureLowF,DewpointHighF,DewpointAvgF,DewpointLowF,HumidityHigh,HumidityAvg,HumidityLow,PressureMaxIn,PressureMinIn,WindSpeedMaxMPH,WindSpeedAvgMPH,GustSpeedMaxMPH,PrecipitationSumIn
2014-1-1,46.6,40.5,36.0,42.8,35.0,29.5,90,81,68,29.28,28.69,0,-999,0,0.21
2014-1-2,45.7,42.9,39.7,39.7,35.4,29.3,87,75,59,29.16,28.69,0,-999,0,0.08
2014-1-3,45.7,43.4,40.6,38.5,32.6,26.6,79,66,49,28.95,28.69,0,-999,0,2.46
2014-1-4,43.9,39.7,37.0,36.0,33.0,26.6,86,77,60,29.25,28.95,0,-999,0,0.16
2014-1-5,46.9,40.2,33.8,42.1,33.8,27.7,86,78,61,29.34,28.83,0,-999,0,0.06
2014-1-6,48.2,46.3,42.4,40.5,35.9,29.8,82,67,50,28.89,28.77,0,-999,0,0.10
2014-1-7,49.1,46.6,45.1,40.6,34.4,28.8,83,63,49,29.36,28.89,0,-999,0,0.18
2014-1-8,47.5,45.2,41.0,40.6,37.0,32.4,84,73,58,29.72,29.36,0,-999,0,0.00
2014-1-9,44.1,39.7,33.1,37.4,34.9,30.6,95,83,71,29.66,29.51,0,-999,0,0.00
2014-1-10,45.5,40.6,33.8,39.6,35.5,29.5,88,82,73,29.75,29.66,0,-999,0,0.04
2014-1-11,40.5,35.3,32.0,32.7,30.5,27.7,89,82,66,30.10,29.75,0,-999,0,0.01
2014-1-12,38.1,34.9,31.1,34.0,28.7,20.8,92,79,51,30.10,29.42,0,-999,0,0.08
2014-1-13,40.3,38.8,35.2,37.2,33.4,31.8,93,81,74,29.51,29.42,0,-999,0,0.13
2014-1-14,38.1,36.0,34.0,35.2,33.3,31.1,94,90,83,29.57,29.42,0,-999,0,0.09
2014-1-15,48.7,42.2,37.6,45.9,39.1,34.3,93,89,79,29.39,29.16,0,-999,0,0.23
2014-1-16,42.1,40.0,36.7,40.3,37.0,33.8,93,89,83,29.19,29.07,0,-999,0,0.07
2014-1-17,43.0,41.3,39.0,40.5,38.5,36.9,93,90,86,29.22,29.01,0,-999,0,0.23
2014-1-18,44.8,41.7,38.8,40.6,37.8,34.3,93,86,78,29.25,29.19,0,-999,0,0.09
2014-1-19,45.1,42.6,34.9,40.5,36.2,27.9,85,78,64,29.45,29.22,0,-999,0,0.09
2014-1-20,45.9,40.2,34.9,37.2,33.3,29.3,84,76,63,29.81,29.45,0,-999,0,0.00
2014-1-21,41.7,39.7,34.7,34.5,31.8,28.4,82,73,59,29.81,29.48,0,-999,0,0.02
2014-1-22,45.5,42.9,40.3,40.8,37.1,34.5,85,80,69,29.69,29.45,0,-999,0,0.02
2014-1-23,42.8,38.4,31.5,36.1,28.8,23.4,82,69,53,29.84,29.51,0,-999,0,0.01
2014-1-24,47.1,38.6,30.7,43.5,33.5,24.6,89,82,70,29.87,29.60,0,-999,0,0.26
2014-1-25,47.1,42.3,37.6,40.8,35.2,29.7,86,76,61,29.72,29.42,0,-999,0,0.27
2014-1-26,44.2,39.2,36.7,36.9,29.3,23.7,83,68,52,29.72,28.89,0,-999,0,0.19
2014-1-27,43.5,40.6,37.6,37.6,33.4,24.3,90,76,56,28.98,28.83,0,-999,0,0.11
2014-1-28,42.8,40.9,38.7,39.0,37.5,35.8,91,88,84,29.28,28.95,0,-761,4,0.30
2014-1-29,43.3,40.8,38.3,38.3,35.2,29.7,87,80,70,29.75,29.28,0,0,1,0.05
2014-1-30,38.7,37.3,36.1,29.8,27.3,23.2,72,67,57,29.75,29.66,0,0,0,0.00
2014-1-31,40.3,38.5,36.9,34.0,28.6,23.2,79,68,53,29.66,28.80,0,0,0,0.00
2014-2-1,43.7,39.6,35.1,38.3,29.8,20.3,85,69,47,28.83,28.51,0,0,0,0.13
2014-2-2,45.9,42.7,40.8,35.6,30.4,23.0,78,62,44,29.51,28.83,0,0,0,0.00
2014-2-3,46.2,43.9,41.2,33.1,26.0,20.5,63,49,38,29.51,29.36,0,0,0,0.00
2014-2-4,43.9,39.8,37.4,33.3,27.9,22.5,74,62,46,29.36,29.07,0,0,0,0.00
2014-2-5,43.3,41.1,38.7,37.4,34.8,28.0,88,78,60,29.07,28.66,0,0,0,0.11
2014-2-6,45.7,41.1,35.1,39.7,34.8,29.5,89,78,61,29.13,28.77,0,0,0,0.03
2014-2-7,44.2,36.7,31.6,41.0,31.1,25.3,96,81,50,29.16,28.95,0,0,0,0.00
2014-2-8,43.3,41.5,38.8,38.5,33.4,29.1,86,73,58,28.51,28.24,0,0,0,0.05
2014-2-9,44.6,42.1,39.9,37.2,32.5,26.4,82,69,54,28.95,28.27,0,0,0,0.08
2014-2-10,44.4,39.7,34.0,37.0,32.5,29.1,87,76,64,29.34,28.92,0,0,0,0.05
2014-2-11,41.5,36.6,33.1,31.8,27.3,11.3,88,71,31,29.31,28.98,0,0,0,0.05
2014-2-12,40.5,36.7,34.2,34.5,29.6,22.3,87,75,60,29.16,28.30,0,0,0,0.11
2014-2-13,41.7,38.9,35.8,35.8,31.6,25.9,88,75,56,29.10,28.45,17,-17,20,0.25
2014-2-14,42.3,39.7,35.4,36.9,34.2,27.7,90,81,61,29.25,28.45,16,-28,18,0.59
2014-2-15,45.1,40.9,38.1,36.5,27.8,17.6,91,62,33,29.31,28.42,10,4,11,0.01
2014-2-16,44.2,37.9,32.4,29.8,23.6,16.0,78,57,38,29.63,29.31,11,-5,11,0.03
2014-2-17,42.6,40.6,35.8,39.9,36.5,29.7,92,85,78,29.63,29.60,6,2,6,0.30
2014-2-18,47.3,44.5,41.9,44.1,41.4,38.3,93,89,84,29.69,29.60,4,1,4,0.02
2014-2-19,44.6,43.2,41.5,40.7,39.4,38.5,92,86,83,29.78,29.42,6,2,7,0.10
2014-2-20,51.1,44.3,32.0,43.5,36.4,28.2,87,74,57,29.42,28.97,17,5,21,0.14
2014-2-21,45.3,41.2,37.4,34.2,29.7,25.9,78,64,49,29.21,29.09,14,8,19,0.00
2014-2-22,48.0,44.4,32.0,40.1,34.7,22.1,84,69,38,29.48,29.18,14,7,17,0.10
2014-2-23,50.9,48.9,32.0,44.9,37.9,29.9,83,66,49,29.39,29.15,20,9,27,1.09
2014-2-24,47.1,43.1,39.2,38.6,35.5,28.6,87,75,49,29.42,29.24,6,-1,11,0.31
2014-2-25,49.6,44.9,32.0,35.8,28.8,20.8,73,54,33,29.36,29.09,12,5,20,0.00
2014-2-26,49.3,43.7,39.9,39.4,32.9,27.4,82,66,52,29.63,29.36,11,6,15,0.05
2014-2-27,45.9,41.0,34.7,36.8,31.0,25.8,85,68,47,29.53,29.30,11,4,19,0.02
2014-2-28,46.4,39.0,34.5,33.6,30.7,25.7,85,73,45,29.57,29.44,10,2,13,0.01
2014-3-1,46.4,39.9,32.0,34.1,29.1,18.0,84,66,38,29.54,29.21,8,3,10,0.17
2014-3-2,44.1,41.3,37.8,38.2,33.2,25.9,85,73,51,29.22,28.77,7,0,11,0.23
2014-3-3,47.3,39.7,33.8,38.8,29.1,16.8,92,69,30,29.31,28.77,8,2,11,0.06
2014-3-4,47.1,42.0,33.3,36.5,29.9,21.9,82,64,38,29.75,29.27,11,4,20,0.01
2014-3-5,48.6,44.2,38.5,40.6,35.0,29.7,84,71,53,29.93,29.74,13,1,17,0.00
2014-3-6,49.1,47.6,46.2,46.6,44.2,40.6,92,88,80,29.92,29.71,6,2,10,0.39
2014-3-7,49.1,42.4,34.3,46.6,31.0,12.2,91,66,28,30.21,29.62,13,5,20,0.36
2014-3-8,53.2,45.4,32.0,40.8,28.7,22.0,78,52,36,30.19,29.77,18,6,21,0.05
2014-3-9,49.1,45.5,39.2,41.6,38.0,31.1,87,76,50,30.16,29.80,11,4,15,0.27
2014-3-10,50.2,40.8,32.7,42.6,31.9,25.0,92,73,40,30.55,30.15,6,1,7,0.02
2014-3-11,52.9,40.5,31.5,36.3,26.6,17.6,87,62,27,30.58,30.51,6,1,7,0.00
2014-3-12,54.1,40.7,28.4,34.9,25.7,13.9,85,60,21,30.51,30.33,5,2,9,0.01
2014-3-13,50.5,46.3,39.9,43.3,40.8,34.9,87,81,74,30.43,30.33,6,3,9,0.00
2014-3-14,51.6,47.3,45.1,43.4,36.9,21.0,89,70,37,30.37,29.95,13,5,20,0.00
2014-3-15,52.9,48.5,32.0,43.3,37.6,21.9,81,66,40,30.13,30.03,19,7,19,0.00
2014-3-16,55.0,49.3,45.1,42.1,36.0,26.9,82,62,40,30.10,29.95,13,7,19,0.00
2014-3-17,52.7,48.8,45.7,41.5,36.0,24.6,77,62,37,29.96,29.80,10,6,13,0.00
2014-3-18,52.7,47.3,32.0,41.9,36.2,28.2,84,66,41,29.83,29.56,9,5,13,0.05
2014-3-19,54.5,50.9,47.3,42.6,34.1,23.3,81,54,32,29.80,29.53,14,9,22,0.00
2014-3-20,50.4,44.9,32.0,38.9,30.1,21.8,76,57,39,29.53,29.18,15,8,30,0.64
2014-3-21,47.1,41.9,38.1,30.7,21.6,13.9,68,46,27,29.36,29.15,11,7,17,0.04
2014-3-22,44.2,39.5,35.2,27.3,22.8,17.3,67,52,38,29.33,29.15,9,5,15,0.00
2014-3-23,46.9,38.8,30.2,29.2,15.4,0.8,78,44,17,29.89,29.33,8,3,8,0.00
2014-3-24,52.9,39.9,26.4,19.4,12.2,5.3,53,35,16,29.89,29.56,5,2,10,0.00
2014-3-25,52.2,45.5,32.0,32.7,24.9,15.2,65,44,35,30.09,29.53,4,2,6,0.00
2014-3-26,51.6,43.1,35.2,34.7,22.6,4.9,80,49,19,30.21,30.01,7,3,10,0.01
2014-3-27,47.7,42.2,32.0,37.3,27.9,22.1,75,57,40,30.21,29.86,11,6,15,0.17
2014-3-28,48.2,41.9,32.0,28.6,23.9,16.3,65,49,30,30.21,30.15,11,5,16,0.00
2014-3-29,46.9,42.9,40.5,39.4,34.9,24.9,84,74,53,30.15,30.03,10,7,15,0.33
2014-3-30,44.1,42.8,32.0,42.2,39.9,35.2,93,89,77,30.07,30.01,10,6,14,0.01
2014-3-31,45.5,43.8,42.4,41.5,40.7,39.7,93,89,83,30.03,29.92,8,5,10,0.01
2014-4-1,45.9,43.8,32.0,42.2,40.3,39.1,91,87,81,29.92,29.83,7,4,12,0.29
2014-4-2,45.1,43.2,42.1,40.9,39.2,37.2,91,86,77,29.83,29.68,9,6,12,0.01
2014-4-3,47.7,43.7,41.7,44.0,40.5,38.3,91,88,82,29.68,29.62,10,6,14,0.30
2014-4-4,48.4,45.1,32.0,43.9,41.7,40.1,91,88,81,29.71,29.68,6,2,8,0.35
2014-4-5,55.9,49.1,41.0,49.1,43.5,35.9,86,81,69,29.71,29.62,6,1,8,0.04
2014-4-6,57.7,53.4,32.0,48.0,39.5,17.1,82,62,22,29.65,29.44,12,5,20,0.02
2014-4-7,50.7,44.9,37.6,43.1,36.5,26.4,83,73,47,29.68,29.50,3,1,5,0.09
2014-4-8,52.9,46.1,39.7,41.0,30.2,17.7,83,57,27,30.01,29.56,9,5,15,0.01
2014-4-9,53.4,50.0,32.0,44.7,41.3,36.8,85,72,55,30.03,29.98,9,5,14,0.03
2014-4-10,55.9,48.9,40.3,42.6,29.0,10.8,82,51,18,30.07,29.98,8,4,15,0.00
2014-4-11,52.3,44.3,32.0,39.7,30.7,19.7,85,61,29,30.12,29.92,8,4,11,0.00
2014-4-12,54.1,48.6,32.0,36.8,25.0,9.7,68,41,18,29.92,29.68,14,8,21,0.01
2014-4-13,50.5,46.0,32.0,39.9,27.1,21.7,76,48,39,29.95,29.83,14,6,22,0.20
2014-4-14,57.9,47.2,32.0,26.2,17.7,7.0,54,34,14,30.33,29.95,6,3,9,0.00
2014-4-15,60.4,47.9,32.0,31.0,21.8,13.2,69,39,17,30.36,30.21,6,3,10,0.00
2014-4-16,57.4,50.0,39.4,31.6,22.1,13.7,48,34,20,30.24,29.92,10,4,13,0.00
2014-4-17,54.9,48.3,38.8,42.2,23.3,5.9,75,41,15,30.09,29.77,11,6,15,0.01
2014-4-18,60.6,45.5,32.2,19.0,11.9,5.0,50,28,14,30.15,30.07,5,2,8,0.00
2014-4-19,63.3,47.7,33.6,34.2,20.3,10.2,71,38,13,30.09,30.03,6,2,10,0.00
2014-4-20,58.5,47.5,32.0,36.5,26.0,8.6,80,50,14,30.07,29.92,7,3,13,0.00
2014-4-21,63.0,51.3,32.0,37.7,28.8,16.3,70,45,18,29.95,29.89,8,4,11,0.00
2014-4-22,50.9,48.1,46.9,45.2,39.8,27.9,92,74,46,29.89,29.77,6,4,10,0.27
2014-4-23,61.0,52.3,46.8,49.7,42.9,34.4,91,73,40,29.98,29.80,6,3,9,0.06
2014-4-24,64.4,53.0,45.3,45.2,33.6,15.0,76,51,16,30.07,29.98,4,2,8,0.01
2014-4-25,50.2,46.9,32.0,44.6,41.5,34.3,91,81,67,30.07,29.74,8,4,12,0.32
2014-4-26,58.1,50.7,46.0,50.0,42.0,35.1,92,74,44,29.74,29.56,9,5,15,0.58
2014-4-27,48.2,47.8,47.5,44.0,43.0,42.0,86,83,79,29.86,29.68,5,4,8,0.00
2014-4-28,63.0,52.0,47.8,43.8,40.4,34.5,83,66,39,29.89,29.83,6,2,8,0.04
2014-4-29,67.8,55.6,47.8,50.4,37.0,20.2,89,55,20,29.89,29.83,4,2,7,0.00
2014-4-30,50.7,47.1,43.3,43.9,41.5,36.7,88,81,61,29.89,29.83,8,4,11,0.54
2014-5-1,48.4,43.4,39.6,40.0,31.1,21.8,88,64,39,30.15,29.86,9,5,13,0.30
2014-5-2,57.0,46.8,41.5,35.6,24.3,10.3,75,45,17,30.36,30.15,6,2,8,0.05
2014-5-3,52.9,47.7,43.0,38.5,25.5,19.4,70,43,28,30.36,30.15,5,2,7,0.01
2014-5-4,57.6,51.7,47.3,52.1,45.0,38.2,88,78,69,30.15,29.92,5,2,7,0.12
2014-5-5,57.9,53.1,47.8,42.9,32.2,22.6,77,47,26,29.92,29.47,6,2,11,0.00
2014-5-6,58.1,53.1,32.0,42.9,32.8,21.5,74,48,26,29.50,29.39,8,4,13,0.01
2014-5-7,54.0,48.5,44.2,41.9,33.9,26.1,81,58,36,29.50,29.39,9,4,14,0.12
2014-5-8,60.4,51.5,46.8,45.8,37.5,22.2,88,64,25,29.56,29.47,4,2,6,0.20
2014-5-9,60.1,52.6,32.0,46.4,36.1,24.4,88,57,27,29.62,29.42,8,4,13,0.32
2014-5-10,57.2,49.3,43.3,49.1,39.4,33.3,82,69,48,29.62,29.21,4,2,6,0.26
2014-5-11,60.1,50.9,43.5,40.6,33.5,16.6,80,56,19,29.59,29.27,5,2,7,0.26
2014-5-12,57.4,48.9,32.0,40.6,32.0,16.6,79,56,22,29.89,29.59,5,2,7,0.14
2014-5-13,61.9,49.6,37.4,38.0,27.2,14.2,74,45,16,30.24,29.89,6,2,10,0.07
2014-5-14,61.2,51.7,40.1,43.9,32.0,14.0,81,52,16,30.42,30.24,5,2,10,0.00
2014-5-15,63.9,56.5,32.0,44.8,35.4,22.8,78,49,23,30.48,30.42,10,4,10,0.02
2014-5-16,66.9,58.4,50.9,41.4,30.8,15.8,62,39,15,30.45,30.18,9,3,12,0.00
2014-5-17,60.1,55.9,32.0,42.4,33.7,20.3,68,44,22,30.18,29.80,7,4,10,0.01
2014-5-18,63.5,56.9,32.0,33.7,25.3,14.0,48,31,16,29.80,29.65,7,4,11,0.00
2014-5-19,68.5,57.5,49.1,45.9,37.0,31.8,78,48,30,29.71,29.62,6,2,9,0.01
2014-5-20,61.0,54.0,32.0,47.0,43.1,34.4,84,68,38,29.77,29.68,7,4,10,0.05
2014-5-21,65.3,56.6,32.0,48.9,34.6,15.7,87,51,15,29.71,29.68,7,3,9,0.06
2014-5-22,53.6,50.0,43.7,43.4,38.7,32.9,79,66,51,29.77,29.59,4,2,6,0.01
2014-5-23,57.6,48.8,32.0,41.2,33.0,25.2,78,57,36,29.89,29.77,7,2,9,0.00
2014-5-24,57.9,51.2,46.8,43.0,39.4,30.0,79,65,37,29.98,29.86,6,3,9,0.01
2014-5-25,57.2,51.2,32.0,51.0,45.6,40.0,86,81,56,30.03,29.92,7,4,10,0.59
2014-5-26,64.6,55.1,32.0,53.4,43.8,33.1,85,68,34,30.07,30.01,3,1,4,0.11
2014-5-27,67.6,55.9,45.9,53.1,38.7,18.7,83,58,21,30.09,30.03,6,2,8,0.01
2014-5-28,59.9,53.1,48.4,49.1,44.3,35.0,85,73,40,30.12,30.07,6,3,11,0.54
2014-5-29,60.4,53.5,32.0,46.6,36.0,21.5,84,56,24,30.24,30.12,8,4,12,0.00
2014-5-30,64.2,54.6,32.0,46.0,29.4,15.6,83,45,16,30.27,30.18,3,1,6,0.00
2014-5-31,68.7,56.9,43.5,44.6,32.9,22.7,82,44,20,30.21,30.12,3,1,5,0.00
2014-6-1,64.6,56.5,32.0,49.1,40.1,28.3,76,56,27,30.15,29.98,5,1,8,0.02
2014-6-2,61.2,57.0,53.8,48.5,43.1,35.3,76,60,39,30.01,29.86,5,2,6,0.02
2014-6-3,63.7,55.6,49.1,47.1,37.0,18.4,77,54,18,29.86,29.71,5,1,8,0.05
2014-6-4,57.4,52.2,46.8,50.1,42.2,30.9,83,70,49,29.74,29.59,4,1,6,0.90
2014-6-5,65.3,56.1,50.9,54.8,46.5,36.9,85,72,38,29.77,29.59,4,2,6,0.08
2014-6-6,70.7,58.8,51.8,45.1,38.7,28.2,74,51,23,29.89,29.77,5,2,7,0.00
2014-6-7,64.4,56.2,48.7,49.8,42.8,32.7,84,64,33,29.92,29.77,7,4,10,0.55
2014-6-8,67.1,58.4,32.0,50.6,39.4,26.1,84,54,23,30.01,29.83,7,2,11,0.02
2014-6-9,67.3,56.5,47.5,52.5,42.7,29.0,81,63,28,30.03,29.89,4,2,7,0.32
2014-6-10,66.2,56.6,32.0,54.4,44.4,32.7,84,65,30,29.92,29.83,5,1,8,0.27
2014-6-11,67.6,59.2,50.5,45.5,35.6,24.3,74,45,20,30.27,29.92,6,3,9,0.00
2014-6-12,65.8,59.3,32.0,48.1,39.9,28.9,74,51,26,30.27,30.24,5,2,8,0.00
2014-6-13,67.5,60.9,56.8,55.8,51.0,43.6,82,71,45,30.24,30.18,5,1,7,0.09
2014-6-14,70.9,61.4,32.0,56.5,50.3,40.2,83,68,34,30.30,30.21,4,1,4,0.07
2014-6-15,64.8,58.2,54.5,52.8,45.5,35.6,83,65,36,30.39,30.30,5,2,7,0.03
2014-6-16,72.5,60.6,50.4,43.2,35.3,28.4,73,42,22,30.39,30.33,4,2,6,0.00
2014-6-17,75.2,62.1,48.6,49.0,40.3,31.3,76,48,21,30.39,30.30,6,2,8,0.04
2014-6-18,78.3,63.8,32.0,56.1,45.6,29.8,82,57,20,30.36,30.15,5,2,8,0.00
2014-6-19,72.5,61.3,54.0,51.3,31.4,18.5,75,36,14,30.21,30.15,4,2,6,0.00
2014-6-20,69.1,59.0,32.0,37.9,29.5,18.1,61,35,15,30.15,30.03,5,2,6,0.00
2014-6-21,67.8,59.8,32.0,42.3,32.0,26.6,69,36,23,30.09,30.03,4,1,6,0.00
2014-6-22,67.1,60.6,54.3,41.3,32.5,20.0,61,37,17,30.15,30.09,3,1,5,0.00
2014-6-23,68.7,59.8,32.0,45.6,37.7,29.1,69,46,24,30.15,30.09,4,2,7,0.00
2014-6-24,66.6,56.6,32.0,48.2,39.3,26.4,76,55,24,30.15,30.09,5,2,7,0.00
2014-6-25,66.6,57.3,32.0,37.6,32.7,26.0,55,40,23,30.09,30.01,4,2,6,0.01
2014-6-26,67.3,57.8,32.0,37.9,28.1,19.0,61,35,17,30.03,29.95,5,3,10,0.00
2014-6-27,60.8,54.4,49.6,29.6,25.3,20.8,45,33,24,29.98,29.92,5,3,9,0.00
2014-6-28,59.5,53.5,47.8,37.3,29.8,24.0,51,41,28,29.92,29.86,4,1,10,0.02
2014-6-29,62.6,54.6,47.1,33.9,26.2,17.8,58,35,19,29.98,29.92,4,2,7,0.00
2014-6-30,69.8,57.0,44.8,40.8,28.6,16.4,71,38,15,30.07,29.98,2,1,4,0.01
2014-7-1,75.0,64.9,49.6,39.5,28.7,18.3,59,29,13,30.12,30.07,3,1,5,0.00
2014-7-2,67.6,58.5,48.2,51.1,35.5,20.8,81,46,17,30.07,29.83,9,3,17,0.02
2014-7-3,66.7,58.3,49.8,46.0,33.5,17.6,77,44,17,29.90,29.75,12,0,12,0.00
2014-7-4,63.0,59.8,48.9,55.2,45.9,39.7,81,61,44,29.75,29.33,13,-43,13,0.18
2014-7-5,65.3,54.4,43.7,46.2,31.6,15.6,82,50,15,29.63,29.48,10,-16,10,0.00
2014-7-6,67.3,56.3,45.3,49.5,34.6,16.0,79,48,15,29.72,29.60,8,1,8,0.10
2014-7-7,67.1,58.1,48.9,41.7,30.8,15.8,72,40,15,30.04,29.72,10,-243,10,0.02
2014-7-8,68.5,56.3,48.7,50.0,40.5,30.7,76,57,27,30.16,29.99,5,-7,5,0.19
2014-7-9,77.0,61.0,46.0,49.6,32.2,18.5,83,42,13,30.22,30.16,8,2,8,0.00
2014-7-10,74.1,61.6,47.5,47.7,32.5,19.6,74,39,13,30.19,30.13,7,2,7,0.00
2014-7-11,75.4,61.7,49.8,47.1,36.3,23.2,75,45,15,30.13,30.07,9,1,9,0.00
2014-7-12,64.4,59.5,51.8,53.1,46.7,34.3,79,63,43,30.07,29.75,1,0,1,0.23
2014-7-13,68.4,60.8,54.9,53.8,41.2,23.4,82,55,20,29.87,29.72,11,3,11,0.13
2014-7-14,65.5,58.1,48.6,55.9,43.9,29.1,81,62,28,29.87,29.69,11,2,11,0.39
2014-7-15,63.0,56.4,49.8,47.3,39.8,28.0,75,56,28,30.10,29.78,13,3,13,0.00
2014-7-16,69.8,58.3,50.0,55.8,41.9,32.5,80,56,29,30.10,29.93,14,2,14,0.23
2014-7-17,74.3,62.5,51.6,49.3,35.2,19.6,79,43,13,30.19,30.07,9,2,9,0.00
2014-7-18,70.7,62.1,56.7,52.2,46.1,30.2,80,60,24,30.19,29.99,13,4,13,0.06
2014-7-19,63.7,60.9,59.0,57.0,54.6,51.1,82,80,74,29.99,29.75,8,3,8,0.16
2014-7-20,73.4,64.9,57.4,57.0,46.8,32.0,83,57,25,30.01,29.78,10,2,10,0.00
2014-7-21,73.4,62.9,51.8,52.3,40.1,23.7,82,50,16,30.22,30.01,5,1,5,0.00
2014-7-22,79.5,64.9,51.3,52.3,38.4,24.4,77,43,15,30.37,30.22,6,1,6,0.00
2014-7-23,76.3,64.8,58.3,52.2,43.9,31.8,76,52,21,30.37,30.25,8,3,8,0.00
2014-7-24,81.9,65.9,55.8,52.2,41.1,20.3,74,48,12,30.28,30.22,9,2,9,0.00
2014-7-25,82.2,66.7,54.7,57.7,40.1,21.9,82,47,12,30.25,30.16,6,1,6,0.00
2014-7-26,79.5,63.2,53.1,58.5,47.5,32.9,80,60,20,30.16,30.01,11,1,11,0.54
2014-7-27,67.8,59.1,52.3,52.5,44.7,28.9,82,62,25,30.04,29.96,21,5,22,0.01
2014-7-28,75.0,62.0,50.2,57.9,39.8,20.3,83,52,14,30.10,30.01,13,4,13,0.00
2014-7-29,78.8,62.3,58.1,53.6,40.5,28.2,82,49,24,30.07,29.96,26,10,26,0.00
2014-7-30,66.7,61.1,57.6,58.3,55.1,52.5,92,81,67,29.96,29.84,26,11,26,0.00
2014-7-31,68.0,60.2,54.7,59.5,54.8,50.7,97,84,58,29.87,29.75,20,6,20,0.03
2014-8-1,68.0,61.0,54.0,56.7,53.1,48.2,96,77,51,29.75,29.66,13,3,13,0.01
2014-8-2,60.8,57.8,52.7,60.1,56.4,50.7,98,95,87,29.72,29.54,25,10,26,0.25
2014-8-3,67.5,60.8,54.5,60.1,56.1,50.2,98,86,58,29.69,29.51,28,7,28,0.15
2014-8-4,66.6,59.0,48.6,56.3,49.9,44.2,96,74,47,30.01,29.69,26,10,26,0.02
2014-8-5,75.4,60.4,46.6,56.1,50.6,43.7,97,73,44,30.04,29.90,15,5,15,0.00
2014-8-6,69.8,62.1,57.4,63.5,58.2,54.1,97,88,68,29.90,29.75,15,5,16,0.32
2014-8-7,69.6,60.6,50.4,56.7,49.5,42.3,95,70,40,29.99,29.84,20,6,20,0.00
2014-8-8,72.3,59.3,51.8,58.1,52.4,47.1,96,80,46,29.99,29.66,19,5,19,0.15
2014-8-9,68.0,59.3,54.0,57.2,51.2,45.0,98,77,46,29.66,29.54,25,6,25,0.01
2014-8-10,59.5,55.7,49.8,57.9,53.9,46.9,98,94,84,29.63,29.25,19,6,19,0.86
2014-8-11,60.4,56.7,53.1,52.7,51.1,48.0,97,82,65,29.42,29.22,36,15,36,0.22
2014-8-12,57.7,56.1,54.7,55.6,53.4,50.7,95,90,81,29.45,29.36,27,11,27,0.19
2014-8-13,68.9,60.1,53.4,56.5,52.6,48.6,96,78,51,29.69,29.39,24,8,24,0.01
2014-8-14,67.6,58.1,53.1,56.8,54.0,52.0,97,87,62,29.93,29.69,16,4,16,0.14
2014-8-15,64.8,57.5,51.4,53.4,49.3,45.0,97,76,54,30.07,29.93,15,4,15,0.01
2014-8-16,61.7,56.5,52.0,56.5,51.9,46.0,94,85,74,30.07,29.66,34,12,34,0.02
2014-8-17,60.8,56.3,52.2,53.4,49.3,45.5,91,78,61,29.66,29.45,33,13,34,0.05
2014-8-18,61.3,55.6,48.7,49.6,42.8,38.5,88,63,48,29.81,29.63,26,10,26,0.00
2014-8-19,63.7,52.3,43.3,50.0,43.3,38.7,93,74,44,29.99,29.81,27,6,27,0.06
2014-8-20,62.4,51.7,40.5,48.4,43.6,38.8,96,76,45,29.99,29.90,25,6,25,0.01
2014-8-21,63.0,53.0,47.3,54.3,49.8,44.8,98,90,61,29.93,29.66,21,7,21,0.39
2014-8-22,61.2,51.8,43.7,51.8,45.6,40.8,96,80,56,29.87,29.75,20,5,20,0.22
2014-8-23,61.7,52.3,45.7,49.6,45.0,39.2,97,78,45,30.01,29.87,20,4,20,0.04
2014-8-24,64.4,53.1,43.7,47.1,41.8,36.3,94,69,40,30.01,29.96,15,4,15,0.00
2014-8-25,61.0,53.3,46.0,52.3,48.6,41.5,95,85,64,29.96,29.78,29,9,29,0.00
2014-8-26,64.6,57.8,48.4,51.3,46.0,41.4,90,66,48,30.04,29.81,22,10,25,0.00
2014-8-27,65.7,54.5,43.3,53.1,46.8,41.9,97,77,48,30.04,29.84,27,9,27,0.00
2014-8-28,71.1,60.2,55.2,61.2,53.6,45.0,96,80,52,29.84,29.63,33,10,33,0.23
2014-8-29,60.3,58.1,56.8,56.8,55.0,51.8,95,89,74,29.63,29.51,32,11,32,0.09
2014-8-30,63.9,58.6,52.7,55.4,52.3,49.5,92,80,65,29.93,29.60,30,12,30,0.00
2014-8-31,69.1,59.7,50.0,55.0,51.0,47.3,97,75,47,30.01,29.93,19,6,19,0.01
2014-9-1,66.6,59.5,54.7,56.7,50.9,44.1,97,75,49,30.22,29.99,20,6,20,0.00
2014-9-2,60.8,57.6,52.7,52.2,50.8,48.2,91,78,67,30.28,30.19,13,4,13,0.00
2014-9-3,68.9,60.8,55.6,57.9,54.8,51.8,94,81,65,30.25,30.19,9,3,9,0.00
2014-9-4,72.1,62.8,57.7,60.8,57.0,54.1,92,82,64,30.19,30.10,9,4,10,0.00
2014-9-5,62.6,59.0,53.2,60.8,57.3,52.2,97,94,92,30.10,30.01,12,4,13,0.22
2014-9-6,63.9,55.4,47.8,54.7,49.6,43.9,98,82,53,30.04,29.96,15,5,15,0.00
2014-9-7,65.5,54.1,44.1,50.9,45.4,42.3,96,75,46,30.04,29.96,16,6,17,0.00
2014-9-8,64.0,53.6,42.6,48.9,44.3,39.7,93,73,48,30.19,30.04,10,5,11,0.00
2014-9-9,66.7,56.4,47.8,52.0,49.4,45.1,95,79,52,30.22,30.13,9,3,9,0.00
2014-9-10,71.8,59.0,48.9,56.1,51.3,46.9,96,78,48,30.22,30.16,16,6,17,0.00
2014-9-11,70.5,57.8,49.5,59.2,53.3,48.0,98,86,56,30.28,30.19,10,3,11,0.00
2014-9-12,67.1,56.6,48.7,58.1,52.8,47.3,97,88,69,30.34,30.25,9,2,10,0.00
2014-9-13,70.7,57.3,46.6,56.5,51.8,45.5,98,84,54,30.43,30.34,13,5,14,0.00
2014-9-14,62.4,56.8,52.3,55.4,52.8,50.7,96,87,67,30.40,30.28,19,9,19,0.00
2014-9-15,59.0,57.1,54.9,58.3,55.6,51.3,98,95,85,30.31,30.07,19,9,19,0.31
2014-9-16,64.9,59.5,56.1,59.7,57.2,55.0,98,92,80,30.07,30.04,20,6,20,0.00
2014-9-17,62.1,58.1,55.4,57.9,55.6,53.6,97,92,82,30.07,29.99,14,5,14,0.00
2014-9-18,61.9,59.5,57.7,60.6,58.5,56.8,98,97,95,29.99,29.93,17,7,18,0.02
2014-9-19,60.4,58.1,56.7,58.3,56.9,55.8,98,96,90,29.99,29.93,11,4,11,0.01
2014-9-20,64.8,57.8,50.9,58.1,53.9,44.6,98,88,67,30.25,29.99,15,4,16,0.24
2014-9-21,63.9,52.8,41.9,50.4,44.9,39.4,96,76,49,30.34,30.22,12,4,15,0.00
2014-9-22,65.5,55.4,47.1,53.6,49.9,45.0,98,83,54,30.31,30.10,22,5,23,0.00
2014-9-23,59.0,55.9,50.7,55.6,50.8,47.5,97,84,68,30.10,29.81,13,6,13,0.04
2014-9-24,62.1,54.1,47.1,51.8,46.2,38.7,98,77,47,29.96,29.81,20,7,22,0.07
2014-9-25,63.9,58.6,52.2,60.1,55.7,45.1,98,90,76,29.93,29.81,28,12,28,0.01
2014-9-26,61.9,57.6,52.9,58.1,46.9,38.3,94,69,46,30.19,29.81,34,14,34,0.02
2014-9-27,62.1,56.1,49.5,54.3,46.8,40.6,93,73,48,30.19,30.10,24,9,24,0.00
2014-9-28,66.0,60.2,53.2,57.0,54.9,50.2,95,83,67,30.13,30.07,14,6,16,0.00
2014-9-29,65.8,58.2,50.2,58.8,54.5,48.2,97,88,69,30.13,30.07,9,2,10,0.00
2014-9-30,68.4,60.1,52.9,57.0,54.1,51.4,96,82,56,30.07,29.96,24,8,28,0.00
2014-10-1,62.1,55.8,42.1,59.2,47.1,36.1,95,74,44,30.37,29.96,23,8,24,0.00
2014-10-2,61.2,51.2,39.0,48.6,43.0,37.0,97,75,52,30.37,29.99,30,8,31,0.00
2014-10-3,61.7,55.1,49.1,56.3,50.9,47.7,97,86,73,29.99,29.78,38,11,45,0.67
2014-10-4,56.5,48.4,39.4,48.7,45.0,37.0,98,89,57,29.96,29.69,20,5,20,0.89
2014-10-5,57.0,50.2,41.4,48.9,45.0,39.0,96,83,67,29.96,29.69,27,8,29,0.00
2014-10-6,56.7,49.9,40.5,48.9,44.5,38.7,94,82,72,29.69,29.34,38,12,38,0.03
2014-10-7,56.7,46.9,39.4,47.1,41.8,38.3,98,84,53,29.45,29.25,24,8,24,0.01
2014-10-8,58.8,49.2,36.7,50.4,45.5,34.5,97,87,71,29.34,29.13,19,6,20,0.03
2014-10-9,54.1,50.9,47.8,52.5,49.7,47.3,98,96,93,29.45,29.13,13,4,13,0.21
2014-10-10,58.3,48.8,40.3,51.6,46.2,38.8,98,92,51,29.72,29.45,19,4,19,0.04
2014-10-11,55.4,46.1,39.0,50.9,44.1,38.1,98,93,74,29.84,29.69,11,3,11,0.00
2014-10-12,55.4,46.1,38.1,51.1,44.2,37.0,98,93,78,29.90,29.81,12,4,12,0.01
2014-10-13,52.5,48.0,44.8,46.0,43.3,38.3,96,84,75,29.93,29.87,28,12,28,0.02
2014-10-14,54.7,48.1,43.2,43.7,40.3,35.8,86,74,62,29.93,29.87,25,12,25,0.00
2014-10-15,57.0,50.4,43.0,47.5,43.2,37.9,91,77,54,29.87,29.60,24,10,24,0.00
2014-10-16,56.3,52.6,50.0,52.0,50.0,47.5,97,91,75,29.60,29.54,23,11,23,0.12
2014-10-17,64.8,56.7,52.5,58.3,53.4,51.4,97,89,65,29.69,29.54,20,8,20,0.15
2014-10-18,64.8,60.3,57.0,58.6,55.0,51.6,95,83,69,29.57,29.39,33,13,33,0.04
2014-10-19,58.5,55.8,51.1,55.2,50.9,46.6,96,84,72,29.69,29.39,39,16,39,0.19
2014-10-20,55.8,53.1,50.2,51.4,49.0,46.2,95,86,76,29.72,29.36,29,12,29,0.01
2014-10-21,56.5,49.1,42.8,53.6,39.5,29.5,95,70,49,29.93,29.01,46,16,46,0.07
2014-10-22,54.0,50.3,40.5,50.2,45.5,34.3,93,83,73,30.04,29.87,28,10,28,0.00
2014-10-23,57.7,54.3,51.3,54.5,51.8,48.2,95,91,82,29.87,29.69,28,11,28,0.10
2014-10-24,52.2,49.8,46.8,48.2,45.2,42.4,94,84,71,29.78,29.72,26,10,26,0.03
2014-10-25,56.7,52.2,49.3,47.5,45.4,43.3,87,78,63,29.72,29.63,43,17,43,0.04
2014-10-26,57.6,55.0,51.8,54.0,49.0,44.1,92,80,69,29.69,29.60,46,22,46,0.39
2014-10-27,62.4,60.0,57.6,57.4,55.8,52.9,93,86,79,29.72,29.66,40,16,40,0.07
2014-10-28,60.1,50.9,36.1,57.4,47.9,33.3,97,89,78,29.90,29.51,37,10,37,0.42
2014-10-29,50.4,42.5,34.3,44.1,39.2,32.2,98,88,73,30.07,29.90,11,4,11,0.00
2014-10-30,59.0,50.9,44.8,56.7,49.5,39.9,98,95,83,29.99,29.84,13,5,13,0.22
2014-10-31,64.2,60.7,56.5,58.6,56.3,54.9,95,86,76,29.84,29.60,32,10,32,0.01
2014-11-1,56.7,54.0,50.7,55.0,48.1,42.3,95,81,61,29.75,29.28,45,12,45,0.02
2014-11-2,54.7,49.3,39.9,50.4,43.3,35.8,94,80,65,29.42,29.22,27,10,28,0.00
2014-11-3,49.1,44.6,40.8,43.2,40.8,36.9,97,87,65,29.22,29.04,17,5,17,0.33
2014-11-4,51.3,44.6,37.9,44.1,40.1,35.1,97,85,73,29.63,29.10,17,6,17,0.02
2014-11-5,46.4,39.4,33.3,37.9,33.0,28.8,92,78,62,29.81,29.63,16,5,16,0.00
2014-11-6,51.3,45.4,34.0,49.1,42.2,31.6,94,89,76,29.69,29.10,29,10,29,0.39
2014-11-7,53.4,49.5,42.1,50.4,46.4,39.0,98,89,73,29.19,28.95,23,8,23,0.17
2014-11-8,49.3,46.4,42.3,45.9,43.6,38.7,98,90,75,29.39,29.19,18,6,18,0.18
2014-11-9,50.4,44.1,36.1,47.5,42.6,34.9,98,95,86,29.60,29.31,12,3,13,0.00
2014-11-10,47.3,42.7,36.0,46.2,41.7,35.4,98,96,90,29.57,29.42,14,5,14,0.01
2014-11-11,53.4,50.0,44.6,49.5,47.0,42.8,96,90,83,29.42,29.34,28,11,28,0.02
2014-11-12,53.6,51.2,47.5,50.9,48.0,41.9,97,89,77,29.45,29.25,32,12,32,0.08
2014-11-13,55.0,49.3,45.3,50.5,45.2,41.5,93,86,70,29.54,29.34,38,13,40,0.02
2014-11-14,53.8,49.2,42.1,51.3,47.3,41.4,98,93,85,29.54,29.36,35,10,35,0.52
2014-11-15,48.2,45.7,41.5,47.1,44.8,41.0,98,97,95,29.57,29.48,18,5,18,0.01
2014-11-16,49.5,44.1,38.7,48.9,43.5,38.1,98,98,97,29.69,29.51,15,3,15,0.01
2014-11-17,52.2,50.0,48.7,51.1,49.3,47.8,98,97,95,29.87,29.69,23,10,24,0.34
2014-11-18,53.2,49.9,46.8,51.8,48.9,45.1,98,96,93,30.07,29.87,13,7,13,0.01
2014-11-19,51.4,48.8,44.2,48.7,47.3,43.2,98,95,87,30.22,30.04,17,8,17,0.03
2014-11-20,50.9,47.7,41.2,49.5,46.6,40.3,97,96,92,30.28,30.22,13,6,13,0.01
2014-11-21,48.4,45.2,41.0,46.4,42.9,40.3,98,92,81,30.22,29.78,27,10,27,0.15
2014-11-22,54.7,48.6,44.1,52.3,46.9,43.0,97,94,80,29.90,29.66,18,6,20,0.21
2014-11-23,45.5,42.4,37.8,44.2,40.1,37.0,98,92,77,30.01,29.90,18,6,18,0.00
2014-11-24,49.5,45.1,37.4,44.8,40.8,34.7,98,85,69,30.19,30.01,20,6,20,0.01
2014-11-25,47.7,45.4,43.5,46.6,44.3,41.9,98,96,87,30.22,30.07,8,3,8,0.00
2014-11-26,44.4,42.7,39.2,43.9,42.0,38.5,98,98,97,30.07,29.75,11,4,11,0.01
2014-11-27,49.5,46.4,42.6,48.9,45.8,42.1,98,98,97,29.75,29.57,13,6,14,0.04
2014-11-28,51.3,48.5,44.4,50.7,47.8,43.9,98,98,96,29.87,29.63,15,7,15,0.01
2014-11-29,51.3,49.8,48.7,50.0,48.6,47.5,97,96,91,29.87,29.75,18,5,18,0.00
2014-11-30,50.2,44.5,37.8,48.2,42.8,36.5,98,94,81,30.04,29.75,20,5,20,0.01
2014-12-1,47.7,44.1,38.8,47.1,43.4,38.3,98,98,93,29.99,29.84,12,3,12,0.06
2014-12-2,43.2,38.0,32.2,42.3,33.8,29.1,98,85,67,30.31,29.96,14,5,14,0.00
2014-12-3,44.2,39.1,32.2,43.7,38.5,30.4,98,98,93,30.31,30.16,9,3,9,0.01
2014-12-4,44.1,41.3,39.0,42.4,39.4,35.8,98,93,83,30.16,29.93,9,2,9,0.00
2014-12-5,40.5,37.4,29.5,39.6,33.5,25.7,97,86,74,30.19,29.93,16,6,16,0.06
2014-12-6,49.8,41.4,28.9,47.8,39.6,25.5,98,93,86,30.22,29.75,31,9,31,0.11
2014-12-7,47.8,40.0,35.1,45.7,36.6,31.5,97,88,75,29.75,29.63,42,12,42,0.27
2014-12-8,40.8,36.3,32.0,35.8,32.8,28.8,97,87,71,30.19,29.72,23,9,23,0.07
2014-12-9,52.9,42.4,30.4,50.4,38.3,28.4,98,85,69,30.16,29.39,45,15,45,0.17
2014-12-10,41.5,38.7,35.8,37.4,33.3,28.8,98,81,63,29.48,29.28,49,18,49,0.75
2014-12-11,39.2,36.5,34.3,35.6,33.0,30.2,98,87,75,29.34,29.19,40,13,40,0.37
2014-12-12,39.9,35.5,30.7,36.1,32.5,28.9,98,89,75,29.57,29.10,16,7,20,0.01
2014-12-13,42.3,36.0,30.2,40.1,32.8,25.3,96,88,81,29.66,29.48,26,8,31,0.03
2014-12-14,48.0,43.6,37.4,45.1,39.0,32.0,94,84,68,29.48,29.28,38,16,38,0.06
2014-12-15,40.8,38.4,34.0,37.0,34.9,31.8,95,87,81,29.69,29.45,29,8,29,0.00
2014-12-16,41.2,38.6,32.9,39.6,33.8,28.6,96,83,71,29.81,29.31,26,7,26,0.15
2014-12-17,50.7,48.0,40.6,49.6,44.5,39.6,98,88,75,29.48,29.31,25,10,25,0.01
2014-12-18,51.6,47.4,41.4,51.1,45.4,35.4,98,93,78,29.45,29.31,28,12,28,0.22
2014-12-19,42.3,40.0,37.6,38.3,35.4,32.0,92,84,72,29.72,29.42,41,16,41,0.18
2014-12-20,45.7,42.6,38.8,43.3,36.8,32.2,95,80,70,30.16,29.72,32,10,32,0.00
2014-12-21,52.3,49.4,44.4,51.4,47.4,41.2,98,93,84,30.10,29.60,38,16,38,0.66
2014-12-22,51.1,46.6,44.6,50.4,43.9,40.1,98,90,80,29.63,29.54,29,13,29,0.56
2014-12-23,46.8,43.6,37.8,43.3,40.8,35.4,98,90,79,29.66,29.60,25,7,25,0.02
2014-12-24,44.1,40.8,38.1,39.9,36.1,34.0,94,83,70,29.99,29.60,41,13,41,0.19
2014-12-25,40.5,35.2,28.4,39.0,33.4,27.0,97,93,87,30.37,29.99,10,3,11,0.00
2014-12-26,37.0,34.7,30.7,36.5,34.1,30.0,98,98,97,30.37,29.87,12,2,12,0.01
2014-12-27,37.4,34.0,29.5,36.9,32.5,25.3,98,94,81,30.16,29.75,13,5,13,0.00
2014-12-28,36.1,31.1,25.9,30.9,28.2,23.4,96,89,79,30.58,30.16,12,5,12,0.00
2014-12-29,35.4,31.7,25.5,34.9,31.0,23.7,98,97,91,30.64,30.55,11,5,11,0.01
2014-12-30,45.1,40.4,35.1,41.0,38.1,33.8,98,91,79,30.55,30.28,22,7,22,0.02
2014-12-31,52.7,46.4,37.6,48.4,42.1,35.1,97,85,71,30.28,29.96,27,9,28,0.02
2015-1-1,55.6,50.7,45.5,54.1,47.0,39.4,97,87,74,30.01,29.45,42,16,42,0.34
2015-1-2,45.5,40.5,37.0,40.1,35.4,29.1,94,82,64,30.13,29.66,40,16,40,0.44